Other Public Products
Issued by NWS Charleston, SC

Current Version | Previous Version | Graphics & Text | Print | Product List | Glossary On
Versions: 1 2 3 4 5 6 7 8 9 10 11 12 13 14 15 16 17 18 19 20 21 22 23 24 25 26 27 28 29 30 31 32 33 34 35 36 37 38 39 40 41 42 43 44 45 46 47 48 49 50
000
FPUS82 KCHS 242212
OPUCHS

TEST...KCHS/KSAV Gateway Observations...TEST
National Weather Service Charleston SC
600 PM EDT MON JUL 24 2017

NOTE: "fair" indicates few or no clouds below 12,000 feet with no
significant weather and/or obstructions to visibility.

SCZ050-WAZ558-NCZ071-TXZ119-213-PAZ071-DCZ001-FLZ074-172-MI076-
NYZ176-178-MAZ016-IL014-TNZ027-NJZ106-GAZ044-MD014-242300-

...Gateway Observations for Charleston International...

CITY           SKY/WX    TMP DP  RH WIND       PRES   REMARKS
Chas Airport   MOSUNNY   86  76  71 SW14      29.95R HX  96
Seattle        MOSUNNY   79  53  40 NW12      29.99F
Charlotte      PTSUNNY   91  66  43 NW6       29.93R HX  93
Dallas DFW     MOSUNNY   91  75  59 E8        29.92F HX 101
Dallas Love    MOSUNNY   90  73  57 SE8       29.93F HX  98
Philladelphia  MOSUNNY   88  66  48 SW10      29.80R HX  90
Wash National  CLOUDY    85  75  72 SW7       29.82R HX  93
Baltimore      MOSUNNY   90  67  46 SW8       29.79F HX  93
Miami          CLOUDY    89  77  67 SE10      30.04F HX 101
Detroit        PTSUNNY   75  55  49 N12       30.02R
Newark         PTSUNNY   72  60  66 NE8       29.85S
Laguardia      CLOUDY    68  60  75 E9        29.86R
J F K          PTSUNNY   69  61  75 NE10      29.87R
Boston Logan   NOT AVBL
Ft. Lauderdale PTSUNNY   87  76  69 SE10      30.04S HX  97
Chicago O`Hare MOSUNNY   73  58  59 NE13      30.05S
Chicago Midway MOSUNNY   73  59  61 NE13      30.05S
Houston Bush   PTSUNNY   95  68  41 S8        29.94F HX  99
Houston Hobby  CLOUDY    95  68  41 SW10      29.95S HX  99
Nashville      PTSUNNY   91  72  53 N5        29.94S HX  98
Atlanta        CLOUDY    77  72  84 SE12      30.01R

$$

GAZ044-118-TXZ119-213-NCZ071-DCZ001-MDZ014-506-PAZ021-071-NJZ106-
NYZ176-178-MAZ106-OHZ011-021-055-MIZ076-KYZ091-ILZ014-INZ047-
MNZ060-ONZ431-242300-

...Gateway Observations for Savannah International...

CITY           SKY/WX    TMP DP  RH WIND       PRES   REMARKS
Savannah Arpt  PTSUNNY   92  73  53 S14       29.95R HX 100
Atlanta        CLOUDY    77  72  84 SE12      30.01R
Charlotte      PTSUNNY   91  66  43 NW6       29.93R HX  93
Dallas DFW     MOSUNNY   91  75  59 E8        29.92F HX 101
Houston Bush   PTSUNNY   95  68  41 S8        29.94F HX  99
Wash National  CLOUDY    85  75  72 SW7       29.82R HX  93
Wash Dulles    LGT RAIN  82  70  66 S12       29.82S
Baltimore      MOSUNNY   90  67  46 SW8       29.79F HX  93
Philadelphia   MOSUNNY   88  66  48 SW10      29.80R HX  90
Newark         PTSUNNY   72  60  66 NE8       29.85S
Laguardia      CLOUDY    68  60  75 E9        29.86R
J F K          PTSUNNY   69  61  75 NE10      29.87R
Boston         NOT AVBL
Pittsburg      PTSUNNY   76  62  62 N16       29.93R
Akron          PTSUNNY   70  57  63 NW15      29.98R
Cleveland      CLOUDY    72  59  63 N9        30.00S
Cincinnati     PTSUNNY   83  67  58 N12       29.96S
Columbus       SUNNY     77  64  63 N13       29.96S
Detroit        PTSUNNY   75  55  49 N12       30.02R
Chicago O`Hare MOSUNNY   73  58  59 NE13      30.05S
Minneapolis    PTSUNNY   78  60  53 SE13      30.03S
Indianapolis   MOSUNNY   81  64  56 N10       29.98F
Toronto Canada CLOUDY    66  57  72 N18       29.86R

$$




USA.gov is the U.S. government's official web portal to all federal, state and local government web resources and services.